When you browse on this site, cookies collect data to enhance your experience and personalize the content and advertising you see.
Visit our Privacy Policy to learn more. By continuing to use the site, you agree to this use of cookies and data.
  • In Hungary
  • List of Countries
  • For 7 days
  • Water Temperature
  • Satellite Maps
  • Weather Map
  • News
  • Weather Widgets
  • user-avatar
    Login

    Hourly Weather Yüksekova

    Today, 23 February, Saturday

    Time Temperature Precipitation Wind Pressure Humidity
    00:00 -8°C° 0 mm 1 mps 599 mmHg 92%
    01:00 -9°C° 0 mm 1 mps 599 mmHg 92%
    02:00 -9°C° 0 mm 1 mps 599 mmHg 91%
    03:00 -9°C° 0 mm 1 mps 599 mmHg 91%
    04:00 -9°C° 0 mm 1 mps 599 mmHg 90%
    05:00 -9°C° 0 mm 1 mps 599 mmHg 89%
    06:00 -9°C° 0 mm 1 mps 599 mmHg 89%
    07:00 -8°C° 0 mm 1 mps 600 mmHg 87%
    08:00 -6°C° 0 mm 1 mps 601 mmHg 86%
    09:00 -3°C° 0 mm 1 mps 601 mmHg 84%
    10:00 -2°C° 0 mm 1 mps 602 mmHg 81%
    11:00 -1°C° 0 mm 0 mps 602 mmHg 79%
    12:00 0°C° 0 mm 0 mps 603 mmHg 76%
    13:00 0°C° 0 mm 0 mps 603 mmHg 77%
    14:00 +1°C° 0 mm 0 mps 602 mmHg 78%
    15:00 +2°C° 0 mm 1 mps 602 mmHg 78%
    16:00 -1°C° 0 mm 0 mps 601 mmHg 81%
    17:00 -3°C° 0 mm 0 mps 601 mmHg 83%
    18:00 -5°C° 0 mm 0 mps 600 mmHg 85%
    19:00 -6°C° 0 mm 1 mps 600 mmHg 84%
    20:00 -6°C° 0 mm 1 mps 600 mmHg 84%
    21:00 -7°C° 0 mm 1 mps 600 mmHg 83%
    22:00 -8°C° 0 mm 2 mps 600 mmHg 82%
    23:00 -8°C° 0 mm 2 mps 600 mmHg 82%

    Tomorrow, 24 February, Sunday

    Time Temperature Precipitation Wind Pressure Humidity
    00:00 -9°C° 0 mm 2 mps 600 mmHg 81%
    01:00 -9°C° 0 mm 2 mps 600 mmHg 79%
    02:00 -9°C° 0 mm 2 mps 600 mmHg 77%
    03:00 -9°C° 0 mm 2 mps 600 mmHg 76%
    04:00 -9°C° 0 mm 2 mps 600 mmHg 74%
    05:00 -9°C° 0 mm 2 mps 600 mmHg 72%
    06:00 -10°C° 0 mm 2 mps 599 mmHg 71%
    07:00 -8°C° 0 mm 2 mps 600 mmHg 72%
    08:00 -7°C° 0 mm 2 mps 601 mmHg 72%
    09:00 -5°C° 0 mm 2 mps 602 mmHg 73%
    10:00 -2°C° 0 mm 1 mps 602 mmHg 73%
    11:00 0°C° 0 mm 1 mps 603 mmHg 72%
    12:00 +1°C° 0 mm 1 mps 603 mmHg 71%
    13:00 +2°C° 0 mm 1 mps 603 mmHg 71%
    14:00 +1°C° 0 mm 0 mps 603 mmHg 71%
    15:00 +1°C° 0 mm 0 mps 603 mmHg 72%
    16:00 -1°C° 0 mm 0 mps 602 mmHg 74%
    17:00 -3°C° 0 mm 0 mps 601 mmHg 76%
    18:00 -5°C° 0 mm 0 mps 600 mmHg 78%
    19:00 -6°C° 0 mm 1 mps 600 mmHg 78%
    20:00 -6°C° 0 mm 1 mps 600 mmHg 78%
    21:00 -7°C° 0 mm 1 mps 601 mmHg 78%
    22:00 -7°C° 0 mm 1 mps 601 mmHg 77%
    23:00 -8°C° 0 mm 2 mps 601 mmHg 76%

    Day after tomorrow, 25 February, Monday

    Time Temperature Precipitation Wind Pressure Humidity
    00:00 -8°C° 0 mm 2 mps 601 mmHg 76%
    01:00 -9°C° 0 mm 2 mps 601 mmHg 73%
    02:00 -9°C° 0 mm 2 mps 601 mmHg 71%
    03:00 -9°C° 0 mm 2 mps 601 mmHg 69%
    04:00 -9°C° 0 mm 2 mps 601 mmHg 68%
    05:00 -9°C° 0 mm 2 mps 601 mmHg 66%
    06:00 -9°C° 0 mm 2 mps 601 mmHg 64%
    07:00 -8°C° 0 mm 2 mps 601 mmHg 65%
    08:00 -4°C° 0 mm 1 mps 602 mmHg 67%
    09:00 -2°C° 0 mm 1 mps 603 mmHg 68%
    10:00 -1°C° 0 mm 1 mps 603 mmHg 69%
    11:00 +1°C° 0 mm 1 mps 604 mmHg 70%
    12:00 +2°C° 0 mm 1 mps 604 mmHg 70%
    13:00 +3°C° 0 mm 1 mps 604 mmHg 72%
    14:00 +3°C° 0 mm 1 mps 603 mmHg 74%
    15:00 +3°C° 0 mm 1 mps 603 mmHg 77%
    16:00 +1°C° 0 mm 1 mps 602 mmHg 76%
    17:00 -1°C° 0 mm 1 mps 601 mmHg 75%
    18:00 -2°C° 0 mm 1 mps 600 mmHg 75%
    19:00 -3°C° 0 mm 1 mps 600 mmHg 74%
    20:00 -4°C° 0 mm 1 mps 600 mmHg 74%
    21:00 -6°C° 0 mm 1 mps 600 mmHg 74%
    22:00 -6°C° 0 mm 1 mps 600 mmHg 74%
    23:00 -6°C° 0 mm 1 mps 599 mmHg 75%

    26 February, Tuesday

    Time Temperature Precipitation Wind Pressure Humidity
    00:00 -7°C° 0 mm 1 mps 599 mmHg 75%
    01:00 -7°C° 0 mm 1 mps 599 mmHg 76%
    02:00 -7°C° 0 mm 1 mps 598 mmHg 76%
    03:00 -7°C° 0 mm 1 mps 598 mmHg 77%
    04:00 -7°C° 0 mm 1 mps 598 mmHg 77%
    05:00 -7°C° 0 mm 1 mps 598 mmHg 77%
    06:00 -7°C° 0 mm 1 mps 598 mmHg 77%
    07:00 -6°C° 0 mm 2 mps 598 mmHg 78%
    08:00 -4°C° 0 mm 2 mps 599 mmHg 78%
    09:00 -3°C° 0 mm 2 mps 599 mmHg 78%
    10:00 -2°C° 0 mm 3 mps 599 mmHg 80%
    11:00 -1°C° 0 mm 3 mps 598 mmHg 81%
    12:00 0°C° 0 mm 3 mps 598 mmHg 82%
    13:00 0°C° 0.4 mm 3 mps 597 mmHg 86%
    14:00 -1°C° 0.4 mm 3 mps 596 mmHg 89%
    15:00 -1°C° 0.4 mm 3 mps 595 mmHg 93%
    16:00 -2°C° 0.8 mm 3 mps 595 mmHg 94%
    17:00 -2°C° 0.8 mm 3 mps 594 mmHg 94%
    18:00 -3°C° 0.8 mm 2 mps 593 mmHg 95%
    19:00 -3°C° 1.2 mm 2 mps 593 mmHg 95%
    20:00 -3°C° 1.2 mm 2 mps 593 mmHg 95%
    21:00 -4°C° 1.2 mm 3 mps 593 mmHg 96%
    22:00 -3°C° 1.7 mm 2 mps 592 mmHg 96%
    23:00 -3°C° 1.7 mm 2 mps 591 mmHg 96%

    27 February, Wednesday

    Time Temperature Precipitation Wind Pressure Humidity
    00:00 -4°C° 1.7 mm 2 mps 590 mmHg 96%
    01:00 -3°C° 2.3 mm 2 mps 589 mmHg 96%
    02:00 -3°C° 2.3 mm 2 mps 589 mmHg 96%
    03:00 -3°C° 2.3 mm 2 mps 588 mmHg 97%
    04:00 -5°C° 0.4 mm 3 mps 587 mmHg 96%
    05:00 -5°C° 0.4 mm 3 mps 587 mmHg 96%
    06:00 -5°C° 0.4 mm 3 mps 586 mmHg 96%
    07:00 -5°C° 0.1 mm 3 mps 587 mmHg 95%
    08:00 -4°C° 0.1 mm 3 mps 587 mmHg 95%
    09:00 -2°C° 0.1 mm 3 mps 587 mmHg 94%
    10:00 -2°C° 0.2 mm 3 mps 588 mmHg 94%
    11:00 -1°C° 0.2 mm 3 mps 588 mmHg 93%
    12:00 -2°C° 0.2 mm 4 mps 588 mmHg 93%
    13:00 -2°C° 0.2 mm 4 mps 588 mmHg 92%
    14:00 -2°C° 0.2 mm 4 mps 588 mmHg 92%
    15:00 -2°C° 0.2 mm 4 mps 587 mmHg 92%
    16:00 -2°C° 0.3 mm 4 mps 588 mmHg 93%
    17:00 -2°C° 0.3 mm 3 mps 588 mmHg 94%
    18:00 -4°C° 0.3 mm 3 mps 588 mmHg 95%
    19:00 -4°C° 0.5 mm 3 mps 588 mmHg 95%
    20:00 -4°C° 0.5 mm 3 mps 589 mmHg 95%
    21:00 -4°C° 0.5 mm 3 mps 589 mmHg 96%
    22:00 -4°C° 1.2 mm 3 mps 589 mmHg 96%
    23:00 -4°C° 1.2 mm 3 mps 589 mmHg 96%

    28 February, Thursday

    Time Temperature Precipitation Wind Pressure Humidity
    00:00 -4°C° 1.2 mm 3 mps 589 mmHg 96%
    01:00 -4°C° 1.9 mm 3 mps 589 mmHg 96%
    02:00 -4°C° 1.9 mm 3 mps 588 mmHg 96%
    03:00 -2°C° 1.9 mm 3 mps 588 mmHg 96%
    04:00 -2°C° 2 mm 3 mps 589 mmHg 96%
    05:00 -2°C° 2 mm 3 mps 589 mmHg 96%
    06:00 -2°C° 2 mm 2 mps 589 mmHg 96%
    07:00 -2°C° 1.5 mm 2 mps 589 mmHg 96%
    08:00 -2°C° 1.5 mm 2 mps 590 mmHg 96%
    09:00 -2°C° 1.5 mm 2 mps 590 mmHg 96%
    10:00 -2°C° 1 mm 2 mps 591 mmHg 95%
    11:00 -2°C° 1 mm 2 mps 591 mmHg 95%
    12:00 -1°C° 1 mm 3 mps 591 mmHg 95%
    13:00 -2°C° 1.5 mm 3 mps 591 mmHg 95%
    14:00 -2°C° 1.5 mm 3 mps 591 mmHg 95%
    15:00 -2°C° 1.5 mm 2 mps 591 mmHg 96%
    16:00 -3°C° 2.2 mm 2 mps 591 mmHg 96%
    17:00 -3°C° 2.2 mm 2 mps 591 mmHg 96%
    18:00 -4°C° 2.2 mm 2 mps 590 mmHg 97%
    19:00 -5°C° 1.3 mm 2 mps 590 mmHg 96%
    20:00 -5°C° 1.3 mm 2 mps 590 mmHg 96%
    21:00 -6°C° 1.3 mm 2 mps 590 mmHg 95%
    22:00 -7°C° 0.1 mm 2 mps 590 mmHg 94%
    23:00 -8°C° 0.1 mm 2 mps 590 mmHg 92%
    Show more